Regional Weather Roundup
Issued by NWS

Home | Current Version | Previous Version | Text Only | Print | Product List | Glossary Off
Versions: 1 2 3 4 5 6 7 8 9 10 11 12 13 14 15 16 17 18 19 20 21 22 23 24 25 26 27 28 29 30 31 32 33 34 35 36 37 38 39 40 41 42 43 44 45 46 47 48 49 50

000
ASUS45 KSLC 161610
RWRUT

UTAH REGIONAL WEATHER ROUNDUP
NATIONAL WEATHER SERVICE SALT LAKE CITY UT
900 AM MST MON JAN 16 2017

UTZ001>011-023>025-161700-

NORTHERN UTAH

CITY           SKY/WX    TMP DP  RH WIND       PRES   REMARKS
BRIGHAM CITY     N/A     12   8  85 CALM      30.30S
HILL AFB       PTSUNNY   10   5  79 E14       30.26R WCI  -5
LOGAN          CLOUDY     0  -2  91 CALM      30.34R FOG
OGDEN          MOSUNNY   14   8  77 S7        30.27R WCI   4
SALT LAKE CITY PTSUNNY   22  16  78 N10       30.29R WCI  11
TOOELE VALLEY  CLOUDY    27  23  86 N6        30.30R WCI  20
WENDOVER       CLOUDY    21  16  79 CALM      30.31R
HEBER CITY     LGT SNOW  10   9  92 CALM      30.24R
WEST JORDAN    PTSUNNY   21  21 100 NW9       30.28S WCI  11

$$

UTZ011>015-024>027-161700-

CENTRAL/NORTHEAST UTAH

CITY           SKY/WX    TMP DP  RH WIND       PRES   REMARKS
PROVO AIRPORT  LGT SNOW  25  20  81 N7        30.28R WCI  17
MOAB/CANYONLAN MOSUNNY   34  32  92 CALM      30.05R
DELTA          SUNNY     23  21  93 N7        30.25R WCI  15
PRICE          SUNNY     25  13  60 CALM      30.06R
RICHFIELD      CLOUDY    28  21  74 N3        30.22R
ROOSEVELT      CLOUDY    21  18  86 W5        30.20R WCI  15
VERNAL         CLOUDY    20  18  92 CALM      30.18R

$$

UTZ013>016-019>022-027-161700-

SOUTHERN UTAH

CITY           SKY/WX    TMP DP  RH WIND       PRES   REMARKS
BRYCE CANYON   CLOUDY    17  13  84 N10       30.08R WCI   5
CEDAR CITY     CLOUDY    26  17  68 N8        30.15R WCI  18
MILFORD        CLOUDY    27  22  81 N13       30.21R WCI  16
ST GEORGE      MOSUNNY   34  23  64 S5        30.15R WCI  30
HANKSVILLE     SUNNY     32  32 100 MISG      30.09R
KANAB          SUNNY     32  27  80 N2        30.11R
BLANDING       MOSUNNY   32  32 100 CALM      30.04R

$$

REGIONAL REPORTS     COLORADO/ARIZONA

CITY           SKY/WX    TMP DP  RH WIND       PRES   REMARKS
CRAIG, CO      CLOUDY    12   8  84 CALM      30.15R
GRAND JUNCTION CLOUDY    33  23  66 N7        30.06R WCI  27
RIFLE, CO      CLOUDY    29  16  58 NW6       30.09R WCI  23
MONTROSE, CO   NOT AVBL
CORTEZ, CO     CLOUDY    33  29  85 NW10      29.95R WCI  25
COLORADO CITY    N/A     32  28  86 CALM      30.11R
PAGE, AZ       PTSUNNY   39  21  48 CALM      30.04R
GRAND CANYON   SUNNY     29  29 100 S3        30.02R
KINGMAN, AZ    MOSUNNY   37  24  59 E7        30.07R WCI  32
FLAGSTAFF, AZ  MOSUNNY   30  29  96 CALM      30.02R

$$

REGIONAL REPORTS    NEVADA/IDAHO/WYOMING

CITY           SKY/WX    TMP DP  RH WIND       PRES   REMARKS
LAS VEGAS, NV  MOSUNNY   44  25  47 N12       30.13R
ELY, NY        CLOUDY    17  16  95 N12       30.22R FOG     WCI   4
ELKO, NV       CLOUDY    20  16  84 W8        30.31R WCI  10
POCATELLO, ID  LGT SNOW   3  -1  83 NE5       30.35R FOG     WCI  -6
BURLEY, ID     CLOUDY    12   9  87 NE3       30.35R FOG
FORT BRIDGER,    N/A     -3  -6  86 NW5       30.19R WCI -13
EVANSTON, WY   CLOUDY     0  -5  79 CALM      30.17R HAZE
ROCK SPRINGS,  FOG       -8 -11  86 SW6       30.18R VSB<1/4 WCI -21
KEMMERER, WY     N/A    N/A N/A N/A NW9       30.15S

$$



USA.gov is the U.S. government's official web portal to all federal, state and local government web resources and services.